Waterbury, CT

3:16 AM EST on February 08, 2016 (GMT -0500)
Waterbury-Oxford

Weather History for KOXC - March, 2013

Change the Weather History Date:

Thursday, March 21, 2013

  Actual Average (KBDR) Record (KBDR)
Temperature  
Mean Temperature 30 °F 41 °F  
Max Temperature 33 °F 49 °F 66 °F (2012)
Min Temperature 26 °F 33 °F 14 °F (1986)
Degree Days  
Heating Degree Days 36 24  
Month to date heating degree days 572  
Since 1 July heating degree days 4459  
Cooling Degree Days 0 0  
Month to date cooling degree days 0  
Year to date cooling degree days 0  
Moisture  
Dew Point 14 °F    
Average Humidity 51    
Maximum Humidity 74    
Minimum Humidity 38    
Precipitation  
Precipitation 0.00 in 0.14 in 2.65 in (1974)
Month to date precipitation 2.68  
Year to date precipitation 8.57  
Snow  
Snow 0.00 in 0.10 in 3.80 in (1958)
Month to date snowfall 4.1  
Since 1 July snowfall 25.7  
Snow Depth -    
Sea Level Pressure  
Sea Level Pressure 29.68 in    
Wind  
Wind Speed 6 mph (North)    
Max Wind Speed 13 mph    
Max Gust Speed 21 mph    
Visibility 9 miles    
Events Snow    
T = Trace of Precipitation, MM = Missing Value Source: NWS Daily Summary

Daily Weather History Graph

Daily Weather History Graph

Search for Another Location

Airport or City:

Trip Planner

Search our weather history database for the weather conditions in past years. The results will help you decide how hot, cold, wet, or windy it might be!

Date:

Astronomy

Mar. 21, 2013 Rise Set
Actual Time 6:53 AM EDT 7:06 PM EDT
Civil Twilight 6:26 AM EDT 7:33 PM EDT
Nautical Twilight 5:53 AM EDT 8:06 PM EDT
Astronomical Twilight 5:20 AM EDT 8:39 PM EDT
Moon 1:29 PM EDT (3/21) 3:17 AM EDT (3/21)
Length of Visible Light 13h 07m
Length of Day
12h 12m
Waxing Gibbous, 68% of the Moon is Illuminated
Mar 21
Waxing Gibbous
Mar 27
Full
Apr 3
Last Quarter
Apr 10
New
Apr 18
First Quarter

Hourly Weather History & Observations

Time (EDT) Temp. Windchill Dew Point Humidity Pressure Visibility Wind Dir Wind Speed Gust Speed Precip Events Conditions
5:45 AM 28.4 °F 24.6 °F 21.2 °F 74% 29.75 in 10.0 mi NNE 3.5 mph - N/A   Overcast
6:45 AM 28.4 °F 21.2 °F 17.6 °F 64% 29.76 in 10.0 mi NNE 6.9 mph - N/A   Overcast
7:45 AM 28.4 °F 22.2 °F 17.6 °F 64% 29.76 in 2.0 mi NE 5.8 mph - N/A Snow Light Snow
8:17 AM 26.6 °F 22.6 °F 19.4 °F 74% 29.76 in 5.0 mi ENE 3.5 mph - N/A Snow Light Snow
8:45 AM 28.4 °F 21.2 °F 19.4 °F 69% 29.74 in 10.0 mi ENE 6.9 mph - N/A   Overcast
9:45 AM 28.4 °F 21.2 °F 17.6 °F 64% 29.73 in 10.0 mi NNE 6.9 mph - N/A   Mostly Cloudy
10:45 AM 30.2 °F 24.3 °F 15.8 °F 55% 29.72 in 10.0 mi NNE 5.8 mph - N/A   Mostly Cloudy
12:45 PM 33.8 °F 27.0 °F 14.0 °F 44% 29.68 in 10.0 mi NNE 8.1 mph - N/A   Mostly Cloudy
1:45 PM 33.8 °F 28.6 °F 12.2 °F 41% 29.65 in 10.0 mi NW 5.8 mph - N/A   Mostly Cloudy
2:45 PM 33.8 °F 28.6 °F 12.2 °F 41% 29.63 in 10.0 mi NW 5.8 mph - N/A   Overcast
3:45 PM 32.0 °F 26.4 °F 15.8 °F 51% 29.62 in 10.0 mi NE 5.8 mph - N/A   Overcast
4:45 PM 33.8 °F - 15.8 °F 48% 29.61 in 10.0 mi Calm Calm - N/A   Overcast
5:45 PM 33.8 °F 27.0 °F 14.0 °F 44% 29.61 in 10.0 mi North 8.1 mph - N/A   Overcast
6:45 PM 33.8 °F 28.6 °F 10.4 °F 38% 29.61 in 10.0 mi NNW 5.8 mph - N/A   Mostly Cloudy
7:45 PM 33.8 °F 28.6 °F 12.2 °F 41% 29.63 in 10.0 mi NNW 5.8 mph - N/A   Scattered Clouds
9:35 PM 30.2 °F 20.8 °F 8.6 °F 40% 29.65 in 10.0 mi NNW 11.5 mph 20.7 mph N/A   Partly Cloudy
10:15 PM 30.2 °F 21.3 °F 8.6 °F 40% 29.66 in 10.0 mi NNW 10.4 mph - N/A   Clear
10:35 PM 30.2 °F 22.6 °F 8.6 °F 40% 29.66 in 10.0 mi NNW 8.1 mph - N/A   Partly Cloudy
10:55 PM 30.2 °F 20.8 °F 8.6 °F 40% 29.66 in 10.0 mi NNW 11.5 mph 16.1 mph N/A   Mostly Cloudy
11:35 PM 28.4 °F 18.0 °F 8.6 °F 43% 29.67 in 10.0 mi NNW 12.7 mph - N/A   Overcast